This is the latest recevied weather packets stored in our database for station/object SP8IZA-1. If no packets are shown the sender has not sent any weather packets the latest 1 day(s).
| Time | Temp. | Humidity | Pressure | Rain* | Wind** | Luminosity | Snow |
|---|---|---|---|---|---|---|---|
| 1778046479 | 17.22° C | 41% | 1003.9 hPa | - | - | - | - |
| 1778046178 | 16.67° C | 41% | 1004 hPa | - | - | - | - |
| 1778045878 | 16.11° C | 41% | 1004 hPa | - | - | - | - |
| 1778045277 | 15.56° C | 41% | 1003.9 hPa | - | - | - | - |
| 1778044976 | 15° C | 42% | 1004 hPa | - | - | - | - |
| 1778044676 | 14.44° C | 42% | 1004 hPa | - | - | - | - |
| 1778044075 | 13.33° C | 42% | 1004.2 hPa | - | - | - | - |
| 1778043474 | 12.78° C | 43% | 1004.2 hPa | - | - | - | - |
| 1778043173 | 12.22° C | 43% | 1004.2 hPa | - | - | - | - |
| 1778042873 | 11.67° C | 43% | 1004.3 hPa | - | - | - | - |
| 1778042572 | 11.11° C | 43% | 1004.3 hPa | - | - | - | - |
| 1778042272 | 10.56° C | 44% | 1004.2 hPa | - | - | - | - |
| 1778041971 | 10.56° C | 44% | 1004.3 hPa | - | - | - | - |
| 1778041671 | 10.56° C | 44% | 1004.4 hPa | - | - | - | - |
| 1778041370 | 10° C | 44% | 1004.4 hPa | - | - | - | - |
| 1778041070 | 10° C | 44% | 1004.4 hPa | - | - | - | - |
| 1778040769 | 10° C | 44% | 1004.4 hPa | - | - | - | - |
| 1778040469 | 9.44° C | 44% | 1004.4 hPa | - | - | - | - |
| 1778039868 | 9.44° C | 44% | 1004.4 hPa | - | - | - | - |
| 1778039567 | 8.89° C | 44% | 1004.3 hPa | - | - | - | - |
| 1778039267 | 8.89° C | 44% | 1004.3 hPa | - | - | - | - |
| 1778038966 | 8.89° C | 44% | 1004.3 hPa | - | - | - | - |
| 1778038666 | 8.89° C | 44% | 1004.3 hPa | - | - | - | - |
| 1778038365 | 8.89° C | 44% | 1004.3 hPa | - | - | - | - |
| 1778038065 | 8.89° C | 44% | 1004.2 hPa | - | - | - | - |
* Rain since midnight (hover to see other rain measurements)
** Current wind speed in m/s (hover to see current wind gust speed)